FW5255 Weather Reports


time (UTC)temp
F
wind
direction
speed
knots
gust
knots
rain 1hr
in
rain 24hr
in
rain mn
in
humidity
%
barometer
mb
20260504175108 73 287 0.0 0.0 0.00 0.00 0.00 40 1012.4
20260504174607 72 274 0.0 0.0 0.00 0.00 0.00 36 1012.5
20260504174103 72 320 0.0 0.0 0.00 0.00 0.00 37 1012.5
20260504173600 72 39 0.0 0.0 0.00 0.00 0.00 36 1012.7
20260504173058 72 283 0.0 0.0 0.00 0.00 0.00 37 1012.8
20260504172553 72 167 0.0 0.0 0.00 0.00 0.00 38 1012.6
20260504172050 72 291 0.0 0.0 0.00 0.00 0.00 38 1012.9
20260504171547 71 271 0.0 0.0 0.00 0.00 0.00 37 1012.7
20260504171044 71 260 0.0 0.0 0.00 0.00 0.00 35 1013.0
20260504170539 70 244 0.0 0.0 0.00 0.00 0.00 36 1013.0
20260504150918 66 274 0.0 0.0 0.00 0.00 0.00 51 1014.1
20260504150415 65 316 0.0 0.0 0.00 0.00 0.00 48 1014.3
20260504140841 63 258 0.0 0.0 0.00 0.00 0.00 58 1014.5
20260504140337 62 279 0.0 0.0 0.00 0.00 0.00 59 1014.2
20260504130806 59 318 0.0 0.0 0.00 0.00 0.00 64 1014.9
20260504130302 59 224 0.0 0.0 0.00 0.00 0.00 67 1014.9
20260504120225 53 304 0.0 0.0 0.00 0.00 0.00 79 1015.2
20260504110653 48 278 0.0 0.0 0.00 0.00 0.00 84 1015.7
20260504110149 48 278 0.0 0.0 0.00 0.00 0.00 84 1015.7
20260504100615 48 278 0.0 0.0 0.00 0.00 0.00 79 1015.7
20260504100113 48 278 0.0 0.0 0.00 0.00 0.00 79 1015.7
20260504081506 48 281 0.0 0.0 0.00 0.00 0.00 72 1015.5
20260504081001 48 281 0.0 0.0 0.00 0.00 0.00 72 1015.4
20260504080458 48 281 0.0 0.0 0.00 0.00 0.00 72 1015.7
20260504050305 49 281 0.0 0.0 0.00 0.00 0.00 64 1015.1
20260504045757 49 281 0.0 0.0 0.00 0.00 0.00 62 1015.1
20260504045256 49 281 0.0 0.0 0.00 0.00 0.00 63 1015.0
20260504044754 49 281 0.0 0.0 0.00 0.00 0.00 62 1015.0
20260504044252 49 281 0.0 0.0 0.00 0.00 0.00 62 1015.0
20260504043749 49 281 0.0 0.0 0.00 0.00 0.00 61 1014.9
20260504043245 49 281 0.0 0.0 0.00 0.00 0.00 62 1014.8
20260504042743 49 281 0.0 0.0 0.00 0.00 0.00 61 1014.8
20260504042239 49 281 0.0 0.0 0.00 0.00 0.00 61 1014.7
20260504041736 49 281 0.0 0.0 0.00 0.00 0.00 61 1014.8
20260504041232 49 281 0.0 0.0 0.00 0.00 0.00 61 1014.8
20260504040728 49 281 0.0 0.0 0.00 0.00 0.00 61 1014.7
20260504040226 49 281 0.0 0.0 0.00 0.00 0.00 61 1014.6
20260504035722 49 281 0.0 0.0 0.00 0.00 0.00 61 1014.5
20260504035219 49 281 0.0 0.0 0.00 0.00 0.00 61 1014.8
20260504034716 49 281 0.0 0.0 0.00 0.00 0.00 60 1014.5
20260504034213 49 281 0.0 0.0 0.00 0.00 0.00 60 1014.5
20260504033711 50 281 0.0 0.0 0.00 0.00 0.00 60 1014.5
20260504033208 50 281 0.0 0.0 0.00 0.00 0.00 59 1014.6
20260504032705 50 281 0.0 0.0 0.00 0.00 0.00 58 1014.3
20260504032202 50 281 0.0 0.0 0.00 0.00 0.00 59 1014.3
20260504031659 50 281 0.0 0.0 0.00 0.00 0.00 57 1014.2
20260504031155 50 281 0.0 0.0 0.00 0.00 0.00 58 1014.3
20260504030652 50 281 0.0 0.0 0.00 0.00 0.00 58 1014.4
20260504030149 50 281 0.0 0.0 0.00 0.00 0.00 57 1014.3
20260504025646 51 281 0.0 0.0 0.00 0.00 0.00 56 1014.5
20260504025142 51 281 0.0 0.0 0.00 0.00 0.00 56 1014.4
20260504024640 51 281 0.0 0.0 0.00 0.00 0.00 55 1014.4
20260504024136 51 281 0.0 0.0 0.00 0.00 0.00 55 1014.3
20260504023633 51 281 0.0 0.0 0.00 0.00 0.00 55 1014.3
20260504023129 51 281 0.0 0.0 0.00 0.00 0.00 53 1014.4
20260504022626 51 281 0.0 0.0 0.00 0.00 0.00 53 1014.4
20260504022121 51 281 0.0 0.0 0.00 0.00 0.00 54 1014.2
20260504021619 51 281 0.0 0.0 0.00 0.00 0.00 55 1014.2
20260504021116 51 281 0.0 0.0 0.00 0.00 0.00 54 1014.4
20260504020613 51 281 0.0 0.0 0.00 0.00 0.00 54 1014.3
20260504020109 52 281 0.0 0.0 0.00 0.00 0.00 54 1014.4
20260504015606 52 281 0.0 0.0 0.00 0.00 0.00 52 1014.5
20260504015102 52 281 0.0 0.0 0.00 0.00 0.00 52 1014.5
20260504014558 52 281 0.0 0.0 0.00 0.00 0.00 52 1014.3
20260504014055 53 281 0.0 0.0 0.00 0.00 0.00 53 1014.2
20260504013553 53 281 0.0 0.0 0.00 0.00 0.00 51 1014.3
20260504013050 53 281 0.0 0.0 0.00 0.00 0.00 51 1014.4
20260504012547 53 281 0.0 0.0 0.00 0.00 0.00 51 1014.2
20260504012045 53 281 0.0 0.0 0.00 0.00 0.00 49 1013.9
20260504011541 53 281 0.0 0.0 0.00 0.00 0.00 49 1013.8
20260504011037 53 281 0.0 0.0 0.00 0.00 0.00 49 1013.8
20260504010533 54 281 0.0 0.0 0.00 0.00 0.00 50 1013.8
20260504010030 54 281 0.0 0.0 0.00 0.00 0.00 49 1013.9
20260504005526 54 281 0.0 0.0 0.00 0.00 0.00 47 1013.8
20260504005024 55 281 0.0 0.0 0.00 0.00 0.00 48 1013.8
20260504004521 55 281 0.0 0.0 0.00 0.00 0.00 47 1013.6
20260504004018 55 281 0.0 0.0 0.00 0.00 0.00 46 1013.4
20260504003515 55 281 0.0 0.0 0.00 0.00 0.00 46 1013.4
20260504003012 56 281 0.0 0.0 0.00 0.00 0.00 44 1013.4
20260504002508 56 281 0.0 0.0 0.00 0.00 0.00 43 1013.2
20260504002006 56 281 0.0 0.0 0.00 0.00 0.00 43 1013.2
20260504001503 56 281 0.0 0.0 0.00 0.00 0.00 44 1013.0
20260504000959 57 281 0.0 0.0 0.00 0.00 0.00 44 1013.2
20260504000457 57 281 0.0 0.0 0.00 0.00 0.00 43 1013.2
20260503235954 57 281 0.0 0.0 0.00 0.00 0.00 40 1013.2
20260503235452 58 281 0.0 0.0 0.00 0.00 0.00 41 1013.2
20260503234949 58 281 0.0 0.0 0.00 0.00 0.00 40 1013.0
20260503234446 58 281 0.0 0.0 0.00 0.00 0.00 39 1013.0
20260503233944 58 274 0.0 0.0 0.00 0.00 0.00 39 1013.0
20260503233440 59 276 0.0 0.0 0.00 0.00 0.00 38 1012.9
20260503232937 59 287 0.0 0.0 0.00 0.00 0.00 37 1012.7
20260503232434 59 325 0.0 0.0 0.00 0.00 0.00 37 1012.9
20260503231932 59 273 0.0 0.0 0.00 0.00 0.00 39 1012.8
20260503231429 59 273 0.0 0.0 0.00 0.00 0.00 36 1012.8
20260503230925 59 283 0.0 0.0 0.00 0.00 0.00 37 1012.6
20260503230422 59 285 0.0 0.0 0.00 0.00 0.00 35 1012.5
20260503225920 59 281 0.0 0.0 0.00 0.00 0.00 37 1012.7
20260503225416 59 280 0.0 0.0 0.00 0.00 0.00 37 1012.4
20260503224912 60 273 0.0 0.0 0.00 0.00 0.00 38 1012.7
20260503224409 60 274 0.0 0.0 0.00 0.00 0.00 36 1012.7
20260503223907 60 293 0.0 0.0 0.00 0.00 0.00 35 1012.6
20260503223405 60 259 0.0 0.0 0.00 0.00 0.00 35 1012.5
20260503222859 60 259 0.0 0.0 0.00 0.00 0.00 35 1012.6
20260503222358 60 312 0.0 0.0 0.00 0.00 0.00 34 1012.7
20260503221856 60 287 0.0 0.0 0.00 0.00 0.00 35 1012.8
20260503221354 60 276 0.0 0.0 0.00 0.00 0.00 37 1012.5
20260503220849 60 322 0.0 0.0 0.00 0.00 0.00 35 1012.5
20260503220341 60 292 0.0 0.0 0.00 0.00 0.00 37 1012.6
20260503215838 60 253 0.0 0.0 0.00 0.00 0.00 36 1012.5
20260503215335 60 276 0.0 0.0 0.00 0.00 0.00 36 1012.8
20260503214833 60 79 0.0 0.9 0.00 0.00 0.00 34 1012.6
20260503214330 60 312 0.0 0.0 0.00 0.00 0.00 35 1012.7
20260503213827 60 326 0.0 0.0 0.00 0.00 0.00 37 1012.7
20260503213325 60 34 0.0 0.9 0.00 0.00 0.00 34 1012.5
20260503212821 60 284 0.0 0.0 0.00 0.00 0.00 37 1012.6
20260503212320 60 302 0.0 0.0 0.00 0.00 0.00 34 1012.4
20260503211816 60 305 0.0 0.0 0.00 0.00 0.00 35 1012.7
20260503211313 60 274 0.0 0.0 0.00 0.00 0.00 35 1012.5
20260503210813 60 229 0.0 0.0 0.00 0.00 0.00 35 1012.4
20260503210311 60 321 0.0 0.0 0.00 0.00 0.00 36 1012.6
20260503205806 60 312 0.0 0.0 0.00 0.00 0.00 38 1012.7
20260503205304 60 256 0.0 0.0 0.00 0.00 0.00 35 1012.9
20260503204753 60 269 0.0 0.0 0.00 0.00 0.00 35 1012.6
20260503204251 60 254 0.0 0.0 0.00 0.00 0.00 34 1012.5
20260503203748 59 294 0.0 0.0 0.00 0.00 0.00 39 1012.8
20260503203245 59 309 0.0 0.0 0.00 0.00 0.00 37 1012.7
20260503202742 60 356 0.0 0.0 0.00 0.00 0.00 36 1012.7
20260503202240 60 279 0.0 0.0 0.00 0.00 0.00 39 1012.8
20260503201738 59 49 0.0 0.9 0.00 0.00 0.00 34 1012.8
20260503201235 59 289 0.0 0.0 0.00 0.00 0.00 36 1012.7
20260503200731 59 277 0.0 0.0 0.00 0.00 0.00 34 1012.7
20260503200228 60 319 0.0 0.0 0.00 0.00 0.00 34 1012.9
20260503195725 60 295 0.0 0.0 0.00 0.00 0.00 35 1013.0
20260503195222 60 312 0.0 0.0 0.00 0.00 0.00 36 1012.6
20260503194719 59 65 0.0 0.0 0.00 0.00 0.00 34 1012.7
20260503194215 60 273 0.0 0.0 0.00 0.00 0.00 36 1012.9
20260503193711 60 35 0.0 0.0 0.00 0.00 0.00 38 1012.8
20260503193208 60 309 0.0 0.0 0.00 0.00 0.00 34 1013.0
20260503192703 61 275 0.0 0.0 0.00 0.00 0.00 35 1013.0
20260503192159 61 308 0.0 0.0 0.00 0.00 0.00 34 1013.1
20260503191655 61 286 0.0 0.0 0.00 0.00 0.00 32 1013.0
20260503191153 61 307 0.0 0.0 0.00 0.00 0.00 35 1013.1
20260503190649 60 307 0.0 0.0 0.00 0.00 0.00 36 1013.1
20260503190146 60 229 0.0 0.0 0.00 0.00 0.00 35 1013.4
20260503185643 60 281 0.0 0.0 0.00 0.00 0.00 36 1013.4
20260503185138 59 290 0.0 0.0 0.00 0.00 0.00 36 1013.3
20260503184633 58 271 0.0 0.0 0.00 0.00 0.00 41 1013.3
20260503184130 59 274 0.0 0.9 0.00 0.00 0.00 34 1013.4
20260503183627 59 285 0.0 0.0 0.00 0.00 0.00 36 1013.6
20260503183124 60 274 0.0 0.0 0.00 0.00 0.00 36 1013.4
20260503182622 59 285 0.0 0.0 0.00 0.00 0.00 42 1013.6
20260503182120 59 210 0.0 0.0 0.00 0.00 0.00 35 1013.3
20260503181616 59 242 0.0 0.0 0.00 0.00 0.00 37 1013.6
20260503181113 57 272 0.0 0.0 0.00 0.00 0.00 40 1013.8
20260503180611 57 296 0.0 0.0 0.00 0.00 0.00 40 1013.7
20260503180109 60 286 0.0 0.0 0.00 0.00 0.00 41 1014.0
20260503175605 59 285 0.0 0.0 0.00 0.00 0.00 41 1013.9